When you browse on this site, cookies collect data to enhance your experience and personalize the content and advertising you see.
Visit our Privacy Policy to learn more. By continuing to use the site, you agree to this use of cookies and data.
  • In Lithuania
  • List of Countries
  • For 7 days
  • Water Temperature
  • Satellite Maps
  • Weather Map
  • Weather Widgets
  • user-avatar
    Login

    Hourly Weather Quebec

    Today, 16 July, Tuesday

    Time Temperature Precipitation Wind Pressure Humidity
    00:00 +14°C° 0 mm 2 mps 695 mmHg 81%
    01:00 +14°C° 0 mm 2 mps 694 mmHg 83%
    02:00 +13°C° 0 mm 2 mps 694 mmHg 83%
    03:00 +13°C° 0 mm 2 mps 693 mmHg 83%
    04:00 +12°C° 0 mm 2 mps 693 mmHg 84%
    05:00 +12°C° 0 mm 3 mps 693 mmHg 81%
    06:00 +14°C° 0 mm 4 mps 693 mmHg 78%
    07:00 +15°C° 0 mm 4 mps 693 mmHg 76%
    08:00 +16°C° 0 mm 6 mps 692 mmHg 69%
    09:00 +18°C° 0 mm 7 mps 692 mmHg 63%
    10:00 +20°C° 0 mm 8 mps 692 mmHg 56%
    11:00 +20°C° 0.1 mm 8 mps 691 mmHg 62%
    12:00 +18°C° 0.1 mm 8 mps 690 mmHg 69%
    13:00 +18°C° 0.1 mm 8 mps 690 mmHg 75%
    14:00 +17°C° 0.3 mm 7 mps 689 mmHg 79%
    15:00 +17°C° 0.3 mm 7 mps 689 mmHg 84%
    16:00 +16°C° 0.3 mm 6 mps 689 mmHg 88%
    17:00 +16°C° 1.3 mm 6 mps 689 mmHg 91%
    18:00 +16°C° 1.3 mm 6 mps 688 mmHg 93%
    19:00 +16°C° 1.3 mm 5 mps 688 mmHg 96%
    20:00 +16°C° 1 mm 5 mps 688 mmHg 96%
    21:00 +16°C° 1 mm 5 mps 688 mmHg 96%
    22:00 +16°C° 1 mm 6 mps 688 mmHg 96%
    23:00 +14°C° 0.2 mm 6 mps 688 mmHg 94%

    Tomorrow, 17 July, Wednesday

    Time Temperature Precipitation Wind Pressure Humidity
    00:00 +10°C° 0.2 mm 6 mps 687 mmHg 91%
    01:00 +8°C° 0.2 mm 7 mps 687 mmHg 89%
    02:00 +8°C° 0 mm 7 mps 687 mmHg 89%
    03:00 +7°C° 0 mm 8 mps 688 mmHg 89%
    04:00 +6°C° 0 mm 8 mps 688 mmHg 89%
    05:00 +6°C° 0 mm 8 mps 689 mmHg 89%
    06:00 +6°C° 0 mm 8 mps 689 mmHg 89%
    07:00 +6°C° 0 mm 9 mps 690 mmHg 89%
    08:00 +6°C° 0 mm 9 mps 691 mmHg 87%
    09:00 +6°C° 0 mm 9 mps 692 mmHg 84%
    10:00 +6°C° 0 mm 9 mps 693 mmHg 81%
    11:00 +7°C° 0 mm 9 mps 693 mmHg 76%
    12:00 +9°C° 0 mm 8 mps 694 mmHg 71%
    13:00 +10°C° 0 mm 8 mps 695 mmHg 66%
    14:00 +11°C° 0 mm 7 mps 695 mmHg 60%
    15:00 +14°C° 0 mm 7 mps 696 mmHg 55%
    16:00 +15°C° 0 mm 7 mps 697 mmHg 49%
    17:00 +14°C° 0 mm 6 mps 697 mmHg 52%
    18:00 +13°C° 0 mm 5 mps 697 mmHg 56%
    19:00 +12°C° 0 mm 4 mps 697 mmHg 59%
    20:00 +11°C° 0 mm 3 mps 697 mmHg 66%
    21:00 +9°C° 0 mm 3 mps 697 mmHg 74%
    22:00 +8°C° 0 mm 3 mps 697 mmHg 81%
    23:00 +7°C° 0 mm 3 mps 697 mmHg 82%

    Day after tomorrow, 18 July, Thursday

    Time Temperature Precipitation Wind Pressure Humidity
    00:00 +7°C° 0 mm 3 mps 698 mmHg 82%
    01:00 +7°C° 0 mm 3 mps 698 mmHg 83%
    02:00 +7°C° 0 mm 3 mps 698 mmHg 84%
    03:00 +7°C° 0 mm 3 mps 698 mmHg 85%
    04:00 +7°C° 0 mm 3 mps 698 mmHg 86%
    05:00 +9°C° 0 mm 3 mps 698 mmHg 77%
    06:00 +11°C° 0 mm 4 mps 698 mmHg 67%
    07:00 +13°C° 0 mm 4 mps 699 mmHg 58%
    08:00 +16°C° 0 mm 3 mps 699 mmHg 54%
    09:00 +17°C° 0 mm 3 mps 699 mmHg 50%
    10:00 +19°C° 0 mm 3 mps 699 mmHg 47%
    11:00 +20°C° 0 mm 3 mps 698 mmHg 45%
    12:00 +20°C° 0 mm 3 mps 698 mmHg 42%
    13:00 +21°C° 0 mm 3 mps 698 mmHg 40%
    14:00 +21°C° 0 mm 3 mps 697 mmHg 40%
    15:00 +21°C° 0 mm 3 mps 696 mmHg 40%
    16:00 +21°C° 0 mm 3 mps 696 mmHg 40%
    17:00 +20°C° 0 mm 3 mps 695 mmHg 45%
    18:00 +19°C° 0 mm 3 mps 695 mmHg 50%
    19:00 +17°C° 0 mm 3 mps 695 mmHg 55%
    20:00 +17°C° 0 mm 3 mps 694 mmHg 53%
    21:00 +17°C° 0 mm 4 mps 693 mmHg 51%
    22:00 +15°C° 0 mm 5 mps 692 mmHg 49%
    23:00 +14°C° 1.4 mm 6 mps 691 mmHg 61%

    19 July, Friday

    Time Temperature Precipitation Wind Pressure Humidity
    00:00 +12°C° 1.4 mm 7 mps 690 mmHg 73%
    01:00 +10°C° 1.4 mm 7 mps 689 mmHg 86%
    02:00 +11°C° 2.6 mm 8 mps 689 mmHg 89%
    03:00 +11°C° 2.6 mm 8 mps 688 mmHg 92%
    04:00 +11°C° 2.6 mm 8 mps 688 mmHg 95%
    05:00 +12°C° 0.8 mm 7 mps 687 mmHg 96%
    06:00 +14°C° 0.8 mm 6 mps 687 mmHg 96%
    07:00 +14°C° 0.8 mm 5 mps 687 mmHg 96%
    08:00 +16°C° 0.4 mm 6 mps 687 mmHg 89%
    09:00 +19°C° 0.4 mm 6 mps 687 mmHg 83%
    10:00 +21°C° 0.4 mm 6 mps 687 mmHg 76%
    11:00 +22°C° 0.7 mm 7 mps 687 mmHg 72%
    12:00 +23°C° 0.7 mm 8 mps 687 mmHg 67%
    13:00 +24°C° 0.7 mm 9 mps 687 mmHg 63%
    14:00 +24°C° 0.2 mm 8 mps 687 mmHg 59%
    15:00 +24°C° 0.2 mm 6 mps 687 mmHg 56%
    16:00 +26°C° 0.2 mm 5 mps 687 mmHg 52%
    17:00 +23°C° 0.1 mm 4 mps 687 mmHg 61%
    18:00 +21°C° 0.1 mm 3 mps 686 mmHg 70%
    19:00 +19°C° 0.1 mm 3 mps 686 mmHg 80%
    20:00 +18°C° 0.5 mm 3 mps 686 mmHg 85%
    21:00 +17°C° 0.5 mm 3 mps 685 mmHg 90%
    22:00 +16°C° 0.5 mm 2 mps 685 mmHg 95%
    23:00 +16°C° 0.8 mm 3 mps 685 mmHg 95%

    20 July, Saturday

    Time Temperature Precipitation Wind Pressure Humidity
    00:00 +16°C° 0.8 mm 3 mps 685 mmHg 95%
    01:00 +15°C° 0.8 mm 4 mps 684 mmHg 95%
    02:00 +14°C° 0.8 mm 4 mps 684 mmHg 95%
    03:00 +13°C° 0.8 mm 4 mps 684 mmHg 94%
    04:00 +12°C° 0.8 mm 4 mps 684 mmHg 93%
    05:00 +11°C° 0.3 mm 4 mps 685 mmHg 92%
    06:00 +10°C° 0.3 mm 5 mps 685 mmHg 90%
    07:00 +10°C° 0.3 mm 5 mps 686 mmHg 89%
    08:00 +10°C° 0 mm 5 mps 686 mmHg 86%
    09:00 +10°C° 0 mm 5 mps 687 mmHg 82%
    10:00 +12°C° 0 mm 4 mps 687 mmHg 79%
    11:00 +12°C° 0 mm 4 mps 688 mmHg 76%
    12:00 +13°C° 0 mm 4 mps 688 mmHg 73%
    13:00 +13°C° 0 mm 5 mps 688 mmHg 70%
    14:00 +14°C° 0 mm 5 mps 688 mmHg 67%
    15:00 +14°C° 0 mm 5 mps 688 mmHg 65%
    16:00 +15°C° 0 mm 5 mps 688 mmHg 63%
    17:00 +13°C° 0.1 mm 5 mps 688 mmHg 66%
    18:00 +12°C° 0.1 mm 5 mps 689 mmHg 68%
    19:00 +10°C° 0.1 mm 5 mps 689 mmHg 71%
    20:00 +8°C° 0 mm 5 mps 689 mmHg 72%
    21:00 +7°C° 0 mm 6 mps 689 mmHg 73%
    22:00 +4°C° 0 mm 6 mps 689 mmHg 75%
    23:00 +4°C° 0 mm 6 mps 689 mmHg 75%

    21 July, Sunday

    Time Temperature Precipitation Wind Pressure Humidity
    00:00 +4°C° 0 mm 6 mps 690 mmHg 76%
    01:00 +4°C° 0 mm 6 mps 690 mmHg 77%
    02:00 +3°C° 0 mm 6 mps 690 mmHg 80%
    03:00 +3°C° 0 mm 6 mps 689 mmHg 84%
    04:00 +2°C° 0 mm 6 mps 689 mmHg 87%
    05:00 +3°C° 0 mm 7 mps 689 mmHg 81%
    06:00 +5°C° 0 mm 8 mps 689 mmHg 75%
    07:00 +6°C° 0 mm 9 mps 689 mmHg 69%
    08:00 +6°C° 0 mm 9 mps 689 mmHg 68%
    09:00 +6°C° 0 mm 9 mps 689 mmHg 67%
    10:00 +7°C° 0 mm 9 mps 689 mmHg 67%
    11:00 +7°C° 0.1 mm 10 mps 689 mmHg 65%
    12:00 +7°C° 0.1 mm 10 mps 689 mmHg 64%
    13:00 +8°C° 0.1 mm 10 mps 689 mmHg 63%
    14:00 +7°C° 0.1 mm 10 mps 690 mmHg 65%
    15:00 +7°C° 0.1 mm 9 mps 690 mmHg 68%
    16:00 +7°C° 0.1 mm 9 mps 690 mmHg 71%
    17:00 +6°C° 0.2 mm 7 mps 691 mmHg 74%
    18:00 +5°C° 0.2 mm 6 mps 691 mmHg 76%
    19:00 +6°C° 0.2 mm 5 mps 691 mmHg 79%
    20:00 +5°C° 0 mm 5 mps 691 mmHg 80%
    21:00 +5°C° 0 mm 4 mps 692 mmHg 81%
    22:00 +4°C° 0 mm 4 mps 692 mmHg 82%
    23:00 +4°C° 0 mm 4 mps 692 mmHg 83%
    Show more